• In Russia
  • List of Countries
  • For 7 days
  • Water Temperature
  • Satellite Maps
  • Weather Map
  • Weather Widgets
  • user-avatar
    Login

    Hourly Weather Tashkent

    Today, 20 February, Wednesday

    Time Temperature Precipitation Wind Pressure Humidity
    00:00 +8°C° 0.5 mm 1 mps 719 mmHg 67%
    01:00 +8°C° 0.5 mm 1 mps 720 mmHg 70%
    02:00 +7°C° 0.5 mm 1 mps 720 mmHg 74%
    03:00 +7°C° 1 mm 1 mps 721 mmHg 76%
    04:00 +6°C° 1 mm 2 mps 721 mmHg 79%
    05:00 +5°C° 0 mm 2 mps 722 mmHg 81%
    06:00 +3°C° 0.9 mm 3 mps 722 mmHg 81%
    07:00 +3°C° 0.9 mm 4 mps 722 mmHg 80%
    08:00 +1°C° 0.9 mm 5 mps 722 mmHg 79%
    09:00 +1°C° 0.8 mm 4 mps 723 mmHg 79%
    10:00 +1°C° 0.8 mm 3 mps 723 mmHg 79%
    11:00 +1°C° 0 mm 3 mps 724 mmHg 81%
    12:00 +2°C° 0.7 mm 2 mps 725 mmHg 81%
    13:00 +2°C° 0.7 mm 2 mps 725 mmHg 82%
    14:00 +3°C° 0.7 mm 1 mps 725 mmHg 82%
    15:00 +3°C° 0.2 mm 1 mps 726 mmHg 80%
    16:00 +3°C° 0.2 mm 1 mps 726 mmHg 79%
    17:00 +3°C° 0.2 mm 1 mps 727 mmHg 77%
    18:00 +3°C° 0.1 mm 1 mps 727 mmHg 78%
    19:00 +3°C° 0.1 mm 1 mps 728 mmHg 79%
    20:00 +2°C° 0.1 mm 1 mps 728 mmHg 81%
    21:00 +2°C° 0.2 mm 1 mps 729 mmHg 81%
    22:00 +2°C° 0.2 mm 1 mps 729 mmHg 82%
    23:00 +2°C° 0.2 mm 1 mps 729 mmHg 82%

    Tomorrow, 21 February, Thursday

    Time Temperature Precipitation Wind Pressure Humidity
    00:00 +2°C° 0.1 mm 1 mps 729 mmHg 83%
    01:00 +2°C° 0.1 mm 1 mps 729 mmHg 83%
    02:00 +1°C° 0.1 mm 1 mps 729 mmHg 83%
    03:00 +1°C° 0 mm 1 mps 730 mmHg 82%
    04:00 +1°C° 0 mm 1 mps 730 mmHg 81%
    05:00 +1°C° 0 mm 1 mps 730 mmHg 79%
    06:00 +1°C° 0 mm 1 mps 731 mmHg 78%
    07:00 +1°C° 0 mm 1 mps 731 mmHg 77%
    08:00 +1°C° 0 mm 1 mps 732 mmHg 76%
    09:00 +1°C° 0 mm 1 mps 732 mmHg 71%
    10:00 +2°C° 0 mm 1 mps 732 mmHg 67%
    11:00 +3°C° 0 mm 1 mps 732 mmHg 63%
    12:00 +4°C° 0 mm 1 mps 732 mmHg 60%
    13:00 +4°C° 0 mm 1 mps 732 mmHg 56%
    14:00 +5°C° 0 mm 1 mps 732 mmHg 53%
    15:00 +5°C° 0 mm 1 mps 732 mmHg 53%
    16:00 +5°C° 0 mm 1 mps 732 mmHg 52%
    17:00 +5°C° 0 mm 1 mps 732 mmHg 52%
    18:00 +3°C° 0 mm 2 mps 732 mmHg 55%
    19:00 +2°C° 0 mm 2 mps 732 mmHg 59%
    20:00 +1°C° 0 mm 2 mps 732 mmHg 63%
    21:00 +1°C° 0 mm 2 mps 732 mmHg 60%
    22:00 +1°C° 0 mm 2 mps 732 mmHg 57%
    23:00 -1°C° 0 mm 2 mps 731 mmHg 54%

    Day after tomorrow, 22 February, Friday

    Time Temperature Precipitation Wind Pressure Humidity
    00:00 -1°C° 0 mm 2 mps 731 mmHg 50%
    01:00 -1°C° 0 mm 2 mps 730 mmHg 45%
    02:00 -1°C° 0 mm 2 mps 730 mmHg 41%
    03:00 -1°C° 0 mm 2 mps 730 mmHg 40%
    04:00 -1°C° 0 mm 2 mps 729 mmHg 38%
    05:00 -1°C° 0 mm 2 mps 729 mmHg 37%
    06:00 -1°C° 0 mm 2 mps 728 mmHg 37%
    07:00 +1°C° 0 mm 2 mps 728 mmHg 38%
    08:00 +1°C° 0 mm 2 mps 728 mmHg 38%
    09:00 +3°C° 0 mm 2 mps 728 mmHg 34%
    10:00 +6°C° 0 mm 1 mps 727 mmHg 31%
    11:00 +8°C° 0 mm 1 mps 727 mmHg 27%
    12:00 +9°C° 0 mm 1 mps 727 mmHg 26%
    13:00 +10°C° 0 mm 1 mps 726 mmHg 25%
    14:00 +11°C° 0 mm 1 mps 726 mmHg 23%
    15:00 +11°C° 0 mm 1 mps 726 mmHg 27%
    16:00 +9°C° 0 mm 2 mps 726 mmHg 30%
    17:00 +9°C° 0 mm 2 mps 726 mmHg 34%
    18:00 +8°C° 0 mm 2 mps 726 mmHg 37%
    19:00 +7°C° 0 mm 2 mps 726 mmHg 41%
    20:00 +5°C° 0 mm 2 mps 726 mmHg 44%
    21:00 +5°C° 0 mm 2 mps 726 mmHg 44%
    22:00 +5°C° 0 mm 2 mps 726 mmHg 43%
    23:00 +4°C° 0 mm 2 mps 726 mmHg 43%

    23 February, Saturday

    Time Temperature Precipitation Wind Pressure Humidity
    00:00 +4°C° 0 mm 2 mps 726 mmHg 41%
    01:00 +4°C° 0 mm 2 mps 726 mmHg 39%
    02:00 +3°C° 0 mm 2 mps 726 mmHg 38%
    03:00 +3°C° 0 mm 2 mps 726 mmHg 36%
    04:00 +3°C° 0 mm 2 mps 726 mmHg 35%
    05:00 +3°C° 0 mm 2 mps 726 mmHg 33%
    06:00 +3°C° 0 mm 2 mps 726 mmHg 32%
    07:00 +3°C° 0 mm 2 mps 726 mmHg 31%
    08:00 +3°C° 0 mm 2 mps 726 mmHg 30%
    09:00 +6°C° 0 mm 1 mps 726 mmHg 27%
    10:00 +9°C° 0 mm 1 mps 726 mmHg 23%
    11:00 +11°C° 0 mm 1 mps 726 mmHg 20%
    12:00 +11°C° 0 mm 0 mps 726 mmHg 20%
    13:00 +12°C° 0 mm 0 mps 726 mmHg 19%
    14:00 +13°C° 0 mm 0 mps 726 mmHg 18%
    15:00 +13°C° 0 mm 0 mps 726 mmHg 20%
    16:00 +12°C° 0 mm 0 mps 726 mmHg 22%
    17:00 +13°C° 0 mm 1 mps 726 mmHg 25%
    18:00 +12°C° 0 mm 1 mps 726 mmHg 26%
    19:00 +10°C° 0 mm 2 mps 726 mmHg 28%
    20:00 +8°C° 0 mm 2 mps 726 mmHg 30%
    21:00 +8°C° 0 mm 2 mps 726 mmHg 31%
    22:00 +7°C° 0 mm 2 mps 726 mmHg 31%
    23:00 +5°C° 0 mm 3 mps 726 mmHg 32%

    24 February, Sunday

    Time Temperature Precipitation Wind Pressure Humidity
    00:00 +5°C° 0 mm 3 mps 725 mmHg 32%
    01:00 +5°C° 0 mm 3 mps 725 mmHg 31%
    02:00 +4°C° 0 mm 3 mps 725 mmHg 31%
    03:00 +4°C° 0 mm 3 mps 725 mmHg 31%
    04:00 +4°C° 0 mm 3 mps 725 mmHg 31%
    05:00 +5°C° 0 mm 2 mps 725 mmHg 30%
    06:00 +5°C° 0 mm 2 mps 725 mmHg 30%
    07:00 +5°C° 0 mm 2 mps 725 mmHg 30%
    08:00 +5°C° 0 mm 2 mps 726 mmHg 30%
    09:00 +7°C° 0 mm 2 mps 726 mmHg 27%
    10:00 +10°C° 0 mm 1 mps 726 mmHg 24%
    11:00 +11°C° 0 mm 1 mps 726 mmHg 20%
    12:00 +12°C° 0 mm 1 mps 726 mmHg 19%
    13:00 +13°C° 0 mm 1 mps 725 mmHg 18%
    14:00 +14°C° 0 mm 1 mps 725 mmHg 16%
    15:00 +14°C° 0 mm 1 mps 725 mmHg 18%
    16:00 +13°C° 0 mm 0 mps 725 mmHg 20%
    17:00 +12°C° 0 mm 0 mps 725 mmHg 21%
    18:00 +12°C° 0 mm 1 mps 726 mmHg 24%
    19:00 +11°C° 0 mm 1 mps 726 mmHg 26%
    20:00 +9°C° 0 mm 2 mps 726 mmHg 28%
    21:00 +8°C° 0 mm 2 mps 726 mmHg 30%
    22:00 +7°C° 0 mm 2 mps 726 mmHg 32%
    23:00 +7°C° 0 mm 3 mps 726 mmHg 34%

    25 February, Monday

    Time Temperature Precipitation Wind Pressure Humidity
    00:00 +5°C° 0 mm 3 mps 726 mmHg 35%
    01:00 +5°C° 0 mm 3 mps 726 mmHg 36%
    02:00 +5°C° 0 mm 3 mps 726 mmHg 37%
    03:00 +4°C° 0 mm 3 mps 726 mmHg 38%
    04:00 +4°C° 0 mm 3 mps 726 mmHg 38%
    05:00 +4°C° 0 mm 3 mps 726 mmHg 38%
    06:00 +5°C° 0 mm 2 mps 726 mmHg 38%
    07:00 +5°C° 0 mm 2 mps 726 mmHg 38%
    08:00 +5°C° 0 mm 2 mps 727 mmHg 38%
    09:00 +7°C° 0 mm 2 mps 727 mmHg 34%
    10:00 +8°C° 0 mm 3 mps 727 mmHg 31%
    11:00 +10°C° 0 mm 3 mps 727 mmHg 27%
    12:00 +11°C° 0 mm 3 mps 727 mmHg 27%
    13:00 +11°C° 0 mm 3 mps 727 mmHg 28%
    14:00 +12°C° 0 mm 3 mps 727 mmHg 28%
    15:00 +13°C° 0 mm 2 mps 727 mmHg 29%
    16:00 +13°C° 0 mm 2 mps 727 mmHg 31%
    17:00 +13°C° 0 mm 1 mps 727 mmHg 32%
    18:00 +10°C° 0 mm 2 mps 727 mmHg 35%
    19:00 +9°C° 0 mm 2 mps 727 mmHg 37%
    20:00 +8°C° 0 mm 2 mps 727 mmHg 40%
    21:00 +7°C° 0 mm 2 mps 727 mmHg 39%
    22:00 +7°C° 0 mm 2 mps 727 mmHg 38%
    23:00 +5°C° 0 mm 3 mps 727 mmHg 37%
    Show more